8,
Avoca, PA
on Monday, July 15, 2013

Monday
Previous Day Next Day
Daily Summary
 ActualAverageRecord
Temperature
Mean Temperature °F 72°F  
Max Temperature 92°F 82°F 100°F (1995)
Min Temperature 68°F 61°F 49°F (1924)
Degree Days
Heating Degree Days 0 0  
Month to date heating degree days 0 0  
Since 1 June heating degree days 21 54  
Since 1 July heating degree days 0 0  
Cooling Degree Days 15 7  
Month to date cooling degree days 179 100  
Year to date cooling degree days 379 254  
Since 1 June cooling degree days 315 217  
Growing Degree Days30 (Base °F )  
Moisture
Dew Point 68°F   
Average Humidity 70    
Maximum Humidity 93    
Minimum Humidity 47    
Precipitation
Precipitation 0.00 in 0.12 in 3.48 in (1945)
Month to date precipitation 0.71 1.76  
Year to date precipitation 15.89 19.59  
Since 1 June precipitation 6.12 5.79  
Wind
Wind Speed 4 mph   
Max Wind Speed 13 mph   
Max Gust Speed 17 mph   
Visibility 10 miles   
Events     

Key: T is trace of precipitation, MM is missing value
Source: NWS Daily Summary
Time(EDT)TemperatureDew PointHumidity Pressure Visibility Wind DirectionWind SpeedGust SpeedPrecipitationEvents Conditions
12:54 AM 72.0°F 66.9°F 84% 30.27 in 10.0 miles Calm Calm - N/A   Clear
1:54 AM 71.1°F 66.9°F 87% 30.27 in 10.0 miles Calm Calm - N/A   Clear
2:54 AM 71.1°F 66.9°F 87% 30.27 in 10.0 miles Calm Calm - N/A   Clear
3:54 AM 72.0°F 68.0°F 87% 30.27 in 10.0 miles Calm Calm - N/A   Clear
4:54 AM 69.1°F 66.0°F 90% 30.27 in 10.0 miles Calm Calm - N/A   Clear
5:54 AM 68.0°F 66.0°F 93% 30.28 in 8.0 miles Calm Calm - N/A   Clear
6:54 AM 71.1°F 66.9°F 87% 30.28 in 10.0 miles Calm Calm - N/A   Clear
7:54 AM 75.9°F 69.1°F 79% 30.29 in 10.0 miles SW 3.5 mph - N/A   Partly Cloudy
8:54 AM 79.0°F 69.1°F 72% 30.29 in 10.0 miles Variable 3.5 mph - N/A   Clear
9:54 AM 82.0°F 69.1°F 65% 30.27 in 10.0 miles Variable 3.5 mph - N/A   Clear
10:54 AM 84.0°F 70.0°F 63% 30.27 in 10.0 miles West 5.8 mph - N/A   Clear
11:54 AM 86.0°F 71.1°F 61% 30.26 in 10.0 miles Variable 4.6 mph - N/A   Partly Cloudy
12:54 PM 88.0°F 70.0°F 55% 30.25 in 10.0 miles North 5.8 mph - N/A   Mostly Cloudy
1:54 PM 89.1°F 69.1°F 52% 30.24 in 10.0 miles NNW 10.4 mph - N/A   Mostly Cloudy
2:54 PM 90.0°F 66.9°F 46% 30.23 in 10.0 miles NNW 6.9 mph - N/A   Mostly Cloudy
3:54 PM 90.0°F 68.0°F 48% 30.22 in 10.0 miles NW 8.1 mph - N/A   Scattered Clouds
4:54 PM 90.0°F 68.0°F 48% 30.20 in 10.0 miles NW 8.1 mph - N/A   Scattered Clouds
5:54 PM 90.0°F 69.1°F 50% 30.19 in 10.0 miles NW 6.9 mph - N/A   Clear
6:54 PM 89.1°F 66.9°F 48% 30.19 in 10.0 miles NNW 9.2 mph - N/A   Clear
7:54 PM 87.1°F 66.9°F 51% 30.19 in 10.0 miles NNW 5.8 mph - N/A   Clear
8:54 PM 82.9°F 68.0°F 60% 30.19 in 10.0 miles North 4.6 mph - N/A   Clear
9:54 PM 77.0°F 69.1°F 76% 30.21 in 10.0 miles Calm Calm - N/A   Clear
10:54 PM 73.9°F 68.0°F 82% 30.21 in 10.0 miles Calm Calm - N/A   Clear
11:54 PM 73.9°F 68.0°F 82% 30.22 in 10.0 miles Calm Calm - N/A   Clear
Astronomy
Sunrise:05:42 AM (EDT) Moon Rise:01:05 PM (EDT)7/15
Sunset:08:34 PM (EDT) Moon Set:No Moon Set/
Moon Phase
Jul. 15 Jul. 15 Jul. 22 Jul. 29 Aug. 06

Copyright © 2014 The Weather Underground, Inc.
8,